Weather History for Wise, VA

Change the Weather History Date:

Thursday, November 27, 2014

  Actual Average Record
Temperature  
Mean Temperature 32 °F -  
Max Temperature 37 °F 49 °F 68 °F (2006)
Min Temperature 26 °F 32 °F 17 °F (2013)
Degree Days  
Heating Degree Days 34    
Moisture  
Dew Point 29 °F    
Average Humidity 93    
Maximum Humidity 100    
Minimum Humidity 65    
Precipitation  
Precipitation 0.05 in - - ()
Sea Level Pressure  
Sea Level Pressure 30.12 in    
Wind  
Wind Speed 7 mph (WNW)    
Max Wind Speed 14 mph    
Max Gust Speed 20 mph    
Visibility 7 miles    
Events Snow    
Averages and records for this station are not official NWS values.
T = Trace of Precipitation, MM = Missing Value Source: NWS Daily Summary

Daily Weather History Graph

Daily Weather History Graph

Search for Another Location

Airport:

Trip Planner

Search our weather history database for the weather conditions in past years. The results will help you decide how hot, cold, wet, or windy it might be!

Date:

Astronomy

Nov. 27, 2014 Rise Set
Actual Time 7:20 AM EST 5:14 PM EST
Civil Twilight 6:52 AM EST 5:42 PM EST
Nautical Twilight 6:20 AM EST 6:14 PM EST
Astronomical Twilight 5:49 AM EST 6:45 PM EST
Moon 11:38 AM EST (11/27) 10:49 PM EST (11/27)
Length of Visible Light 10h 50m
Length of Day
9h 53m
Waxing Crescent, 31% of the Moon is Illuminated
Nov 27
Waxing Crescent
Nov 29
First Quarter
Dec 6
Full
Dec 14
Last Quarter
Dec 21
New

Hourly Weather History & Observations

Time (EST) Temp. Windchill Dew Point Humidity Pressure Visibility Wind Dir Wind Speed Gust Speed Precip Events Conditions
12:15 AM 35.6 °F 32.8 °F 28.4 °F 75% 29.96 in 10.0 mi WSW 3.5 mph - N/A   Overcast
12:35 AM 37.4 °F 29.8 °F 26.6 °F 65% 29.96 in 10.0 mi SW 11.5 mph 16.1 mph N/A   Overcast
12:55 AM 35.6 °F 27.5 °F 28.4 °F 75% 29.96 in 10.0 mi SW 11.5 mph 17.3 mph N/A   Overcast
1:15 AM 35.6 °F 28.0 °F 28.4 °F 75% 29.95 in 10.0 mi SSW 10.4 mph - N/A   Overcast
1:35 AM 33.8 °F 27.0 °F 30.2 °F 87% 29.95 in 10.0 mi SW 8.1 mph - N/A   Overcast
1:55 AM 33.8 °F 28.6 °F 30.2 °F 87% 29.95 in 10.0 mi SW 5.8 mph - N/A   Overcast
2:15 AM 33.8 °F 30.8 °F 30.2 °F 87% 29.94 in 10.0 mi SW 3.5 mph - N/A   Overcast
2:35 AM 33.8 °F 30.8 °F 30.2 °F 87% 29.94 in 10.0 mi SSW 3.5 mph - N/A   Overcast
2:55 AM 33.8 °F - 30.2 °F 87% 29.94 in 10.0 mi Calm Calm - N/A   Overcast
3:15 AM 33.8 °F 30.8 °F 30.2 °F 87% 29.95 in 10.0 mi WSW 3.5 mph - N/A   Overcast
3:35 AM 33.8 °F 29.6 °F 32.0 °F 93% 29.95 in 7.0 mi WSW 4.6 mph - N/A Snow Light Snow
3:55 AM 33.8 °F 30.8 °F 32.0 °F 93% 29.95 in 4.0 mi WSW 3.5 mph - N/A Snow Light Snow
4:15 AM 33.8 °F - 33.8 °F 100% 29.95 in 4.0 mi Calm Calm - N/A Snow Light Snow
4:35 AM 33.8 °F - 33.8 °F 100% 29.95 in 4.0 mi Calm Calm - N/A Snow Light Snow
4:55 AM 32.0 °F - 32.0 °F 100% 29.96 in 2.0 mi Calm Calm - 0.01 in Snow Light Snow
5:15 AM 32.0 °F - 32.0 °F 100% 29.96 in 5.0 mi Calm Calm - N/A Snow Light Snow
5:35 AM 32.0 °F - 32.0 °F 100% 29.97 in 5.0 mi Calm Calm - 0.01 in Snow Light Snow
5:55 AM 32.0 °F - 32.0 °F 100% 29.98 in 5.0 mi Calm Calm - 0.01 in Snow Light Snow
6:15 AM 32.0 °F 28.7 °F 32.0 °F 100% 29.99 in 2.5 mi NW 3.5 mph - N/A Snow Light Snow
6:35 AM 32.0 °F 27.5 °F 32.0 °F 100% 30.00 in 2.5 mi NNW 4.6 mph - 0.01 in Snow Light Snow
6:55 AM 32.0 °F 26.4 °F 32.0 °F 100% 30.01 in 5.0 mi NW 5.8 mph - 0.01 in Snow Light Snow
7:15 AM 32.0 °F 26.4 °F 32.0 °F 100% 30.02 in 0.8 mi NW 5.8 mph - N/A Snow Light Snow
7:35 AM 32.0 °F 24.8 °F 32.0 °F 100% 30.03 in 1.5 mi NNW 8.1 mph 16.1 mph 0.01 in Snow Light Snow
7:55 AM 32.0 °F 24.8 °F 32.0 °F 100% 30.04 in 1.5 mi NW 8.1 mph - 0.01 in Snow Light Snow
8:15 AM 32.0 °F 24.8 °F 32.0 °F 100% 30.05 in 1.5 mi NW 8.1 mph - N/A Snow Light Snow
8:35 AM 32.0 °F 23.0 °F 32.0 °F 100% 30.07 in 1.2 mi NW 11.5 mph 17.3 mph N/A Snow Light Snow
8:55 AM 32.0 °F 24.2 °F 32.0 °F 100% 30.09 in 1.2 mi NW 9.2 mph - N/A Snow Light Snow
9:15 AM 32.0 °F 25.6 °F 32.0 °F 100% 30.09 in 1.5 mi WNW 6.9 mph - 0.01 in Snow Light Snow
9:35 AM 32.0 °F 24.8 °F 32.0 °F 100% 30.10 in 1.8 mi NNW 8.1 mph - 0.01 in Snow Light Snow
9:55 AM 32.0 °F 22.5 °F 32.0 °F 100% 30.11 in 4.0 mi NNW 12.7 mph 16.1 mph 0.01 in Snow Light Snow
10:15 AM 32.0 °F 24.2 °F 32.0 °F 100% 30.13 in 3.0 mi NW 9.2 mph 16.1 mph N/A Snow Light Snow
10:35 AM 32.0 °F 25.6 °F 30.2 °F 93% 30.14 in 5.0 mi NW 6.9 mph - N/A Snow Light Snow
10:55 AM 30.2 °F 23.4 °F 30.2 °F 100% 30.14 in 7.0 mi NW 6.9 mph - N/A Snow Light Snow
11:10 AM 30.2 °F 23.4 °F 30.2 °F 100% 30.15 in 10.0 mi WNW 6.9 mph - N/A   Overcast
11:35 AM 32.0 °F 26.4 °F 30.2 °F 93% 30.15 in 10.0 mi NW 5.8 mph - N/A   Overcast
11:55 AM 32.0 °F 28.7 °F 30.2 °F 93% 30.15 in 10.0 mi WNW 3.5 mph - N/A   Overcast
12:15 PM 32.0 °F 23.6 °F 30.2 °F 93% 30.15 in 10.0 mi West 10.4 mph - N/A   Overcast
12:35 PM 30.2 °F 22.6 °F 30.2 °F 100% 30.15 in 7.0 mi WNW 8.1 mph - N/A   Overcast
12:55 PM 30.2 °F 22.6 °F 30.2 °F 100% 30.15 in 7.0 mi WNW 8.1 mph - N/A   Overcast
1:15 PM 30.2 °F 21.9 °F 30.2 °F 100% 30.15 in 7.0 mi West 9.2 mph - N/A   Overcast
1:35 PM 30.2 °F 21.3 °F 30.2 °F 100% 30.16 in 5.0 mi WNW 10.4 mph - N/A   Overcast
1:55 PM 30.2 °F 21.9 °F 30.2 °F 100% 30.16 in 7.0 mi WNW 9.2 mph 16.1 mph N/A   Overcast
2:15 PM 30.2 °F 21.3 °F 30.2 °F 100% 30.16 in 10.0 mi WNW 10.4 mph 16.1 mph N/A   Overcast
2:35 PM 30.2 °F 20.8 °F 30.2 °F 100% 30.17 in 10.0 mi WNW 11.5 mph 16.1 mph N/A   Overcast
2:55 PM 30.2 °F 19.8 °F 30.2 °F 100% 30.17 in 10.0 mi WNW 13.8 mph - N/A   Overcast
3:15 PM 30.2 °F 20.2 °F 28.4 °F 93% 30.18 in 5.0 mi West 12.7 mph 19.6 mph N/A   Overcast
3:35 PM 30.2 °F 20.8 °F 28.4 °F 93% 30.19 in 10.0 mi West 11.5 mph - N/A   Overcast
3:55 PM 30.2 °F 23.4 °F 28.4 °F 93% 30.20 in 7.0 mi WNW 6.9 mph 16.1 mph N/A   Overcast
4:15 PM 30.2 °F 21.9 °F 28.4 °F 93% 30.21 in 3.0 mi WNW 9.2 mph - N/A Snow Light Snow
4:35 PM 28.4 °F 20.4 °F 28.4 °F 100% 30.21 in 7.0 mi WNW 8.1 mph - N/A Snow Light Snow
4:55 PM 28.4 °F 19.7 °F 26.6 °F 93% 30.22 in 5.0 mi WNW 9.2 mph 18.4 mph N/A   Overcast
5:15 PM 28.4 °F 18.5 °F 26.6 °F 93% 30.23 in 7.0 mi NW 11.5 mph 18.4 mph N/A   Overcast
5:35 PM 28.4 °F 20.4 °F 26.6 °F 93% 30.23 in 7.0 mi NW 8.1 mph - N/A   Overcast
5:55 PM 28.4 °F 19.7 °F 26.6 °F 93% 30.24 in 10.0 mi WNW 9.2 mph 17.3 mph N/A   Overcast
6:15 PM 26.6 °F 18.2 °F 26.6 °F 100% 30.25 in 10.0 mi WNW 8.1 mph - N/A   Unknown
6:35 PM 26.6 °F 20.0 °F 26.6 °F 100% 30.26 in 7.0 mi WNW 5.8 mph - N/A Snow Light Snow
6:55 PM 26.6 °F 18.2 °F 24.8 °F 93% 30.27 in 10.0 mi WNW 8.1 mph - N/A Snow Light Snow
7:15 PM 26.6 °F 18.2 °F 24.8 °F 93% 30.27 in 10.0 mi WNW 8.1 mph - N/A   Overcast
7:35 PM 26.6 °F 20.0 °F 23.0 °F 86% 30.28 in 10.0 mi WNW 5.8 mph - N/A Snow Light Snow
7:55 PM 26.6 °F 20.0 °F 23.0 °F 86% 30.28 in 7.0 mi WNW 5.8 mph - N/A Snow Light Snow
8:15 PM 26.6 °F 18.2 °F 23.0 °F 86% 30.28 in 10.0 mi WNW 8.1 mph 16.1 mph N/A Snow Light Snow
8:35 PM 26.6 °F 17.5 °F 23.0 °F 86% 30.28 in 10.0 mi West 9.2 mph - N/A Snow Light Snow
8:55 PM 26.6 °F 22.6 °F 23.0 °F 86% 30.28 in 10.0 mi West 3.5 mph - N/A Snow Light Snow
9:15 PM 26.6 °F 20.0 °F 23.0 °F 86% 30.28 in 10.0 mi WNW 5.8 mph - N/A Snow Light Snow
9:35 PM 26.6 °F 19.1 °F 23.0 °F 86% 30.28 in 10.0 mi West 6.9 mph 16.1 mph N/A Snow Light Snow
9:55 PM 26.6 °F 19.1 °F 24.8 °F 93% 30.28 in 10.0 mi West 6.9 mph - N/A Snow Light Snow
10:15 PM 26.6 °F 17.5 °F 24.8 °F 93% 30.28 in 5.0 mi West 9.2 mph - N/A Snow Light Snow
10:35 PM 26.6 °F 17.5 °F 24.8 °F 93% 30.28 in 7.0 mi WNW 9.2 mph - N/A Snow Light Snow
10:55 PM 26.6 °F 19.1 °F 24.8 °F 93% 30.28 in 7.0 mi WNW 6.9 mph - N/A Snow Light Snow
11:15 PM 26.6 °F 20.0 °F 23.0 °F 86% 30.28 in 10.0 mi WNW 5.8 mph - N/A Snow Light Snow
11:35 PM 26.6 °F 19.1 °F 21.2 °F 80% 30.28 in 5.0 mi WNW 6.9 mph - N/A Snow Light Snow
11:55 PM 26.6 °F 19.1 °F 21.2 °F 80% 30.28 in 7.0 mi WNW 6.9 mph - N/A Snow Light Snow